Other Surface Observations
Issued by NWS Charleston, SC

Home | Current Version | Previous Version | Text Only | Print | Product List | Glossary On
Versions: 1 2 3 4 5 6 7 8 9 10 11 12 13 14 15 16 17 18 19 20 21 22 23 24 25 26 27 28 29 30 31 32 33 34 35 36 37 38 39 40 41 42 43 44 45 46 47 48 49 50
469
SXUS52 KCHS 040327
OSOCHS

MARINE OBSERVATIONS
NATIONAL WEATHER SERVICE CHARLESTON SC
1000 PM EST SAT DEC 03 2016

...DOWNTOWN CHARLESTON AND HARBOR...

CITY           SKY/WX    TMP DP  RH WIND       PRES   REMARKS
WATERFRONT PRK   N/A     53  42  66 NE8       30.25F

...LAKE MOULTRIE...

CITY           SKY/WX    TMP DP  RH WIND       PRES   REMARKS
PINOPOLIS        N/A     54  37  54 VRB3      30.19R

...LAKE AND SUPPLEMENTAL COASTAL OBSERVATIONS...

STATION/POSITION TIME  TEMP    WIND        PRES    WAVE   SWELL
                       AIR SEA DIR/SP/G            HT/PER HT/PER/DIR
                 (UTC) (F)     (DEG/KT/KT) (MB)    (FT/S) (FT/S/D)
FORT PULASKI     0300   56 62   50/  8/  9 1024.8
SAPELO ISLAND    0300   59      50/  8     1024.0
WINYAH BAY       0230   49      10/  4     1025.0S
LAKE MURRAY      0320   50        CALM     1024.0
ACE BASIN NERRS  0245   52     360/  1     1025.0R


...C-MAN AND BUOY OBSERVATIONS...

STATION/POSITION TIME  TEMP    WIND        PRES    WAVE   SWELL
                       AIR SEA DIR/SP/G            HT/PER HT/PER/DIR
                 (UTC) (F)     (DEG/KT/KT) (MB)    (FT/S) (FT/S/D)
BUOY 41004       0250   58 75   10/ 12/ 16 1024.2R   3/ 5   2/ 40/ 6
BUOY 41008       0250   62 65   60/ 17/ 19 1023.2R   4/ 6   2/120/ 8
FOLLY BEACH CMAN 0300   54      20/  8/  9 1025.9R
CAPERS NS BUOY   0308   54 61   20/ 10/ 12 1025.1R
FRIPP NS BUOY    0308   57 63   40/ 12/ 14 1024.7R
5E ST. MARYS GA  0300      66                N/A     4/ 5


STATION/POSITION TIME  TEMP    WIND        PRES    WAVE   SWELL
                       AIR SEA DIR/SP/G            HT/PER HT/PER/DIR
                 (UTC) (F)     (DEG/KT/KT) (MB)    (FT/S) (FT/S/D)
FRYING PAN BUOY  0310   56 73  350/ 10/ 16 1024.8
BUOY 41025       0250   58 75  350/ 14/ 17 1023.9R   5/ 8   5/ 50/ 8
CAPE LOOKOUT NC  0300   50     340/  9/ 10 1024.5R
BUOY 41002       0250   63 73   10/ 10/ 14 1021.8F   6/ 7   5/ 10/ 7
BUOY 41010       NOT AVBL
ST AUGUSTINE FL  0300   69 67   90/ 10/ 11 1022.1R

$$




USA.gov is the U.S. government's official web portal to all federal, state and local government web resources and services.